TimeEDT,TemperatureF,Dew PointF,Humidity,Sea Level PressureIn,VisibilityMPH,Wind Direction,Wind SpeedMPH,Gust SpeedMPH,PrecipitationIn,Events,Conditions,WindDirDegrees,DateUTC
12:52 AM,44.1,41.0,89,29.95,10.0,Calm,Calm,-,N/A,,Clear,0,2012-10-01 04:52:00
1:52 AM,44.1,41.0,89,29.95,9.0,Calm,Calm,-,N/A,,Clear,0,2012-10-01 05:52:00
2:52 AM,43.0,41.0,93,29.95,9.0,Calm,Calm,-,N/A,,Clear,0,2012-10-01 06:52:00
3:52 AM,42.1,39.0,89,29.93,10.0,Calm,Calm,-,N/A,,Clear,0,2012-10-01 07:52:00
4:52 AM,42.1,39.0,89,29.93,10.0,Calm,Calm,-,N/A,,Clear,0,2012-10-01 08:52:00
5:52 AM,43.0,39.9,89,29.94,10.0,Calm,Calm,-,N/A,,Clear,0,2012-10-01 09:52:00
6:52 AM,42.1,37.9,85,29.94,10.0,Calm,Calm,-,N/A,,Clear,0,2012-10-01 10:52:00
7:52 AM,43.0,39.0,86,29.95,9.0,Calm,Calm,-,N/A,,Clear,0,2012-10-01 11:52:00
8:52 AM,46.0,42.1,86,29.96,8.0,Calm,Calm,-,N/A,,Clear,0,2012-10-01 12:52:00
9:52 AM,53.1,48.0,83,29.96,10.0,Calm,Calm,-,N/A,,Clear,0,2012-10-01 13:52:00
10:52 AM,59.0,48.0,67,29.95,10.0,East,4.6,-,N/A,,Clear,80,2012-10-01 14:52:00
11:52 AM,62.1,45.0,53,29.93,10.0,East,9.2,-,N/A,,Clear,100,2012-10-01 15:52:00
12:52 PM,63.0,44.1,50,29.92,10.0,East,9.2,-,N/A,,Scattered Clouds,100,2012-10-01 16:52:00
1:52 PM,63.0,48.9,60,29.90,10.0,East,9.2,-,N/A,,Partly Cloudy,90,2012-10-01 17:52:00
2:52 PM,64.0,48.0,56,29.88,10.0,East,10.4,-,N/A,,Clear,80,2012-10-01 18:52:00
3:52 PM,64.0,46.0,52,29.88,10.0,ENE,9.2,-,N/A,,Clear,70,2012-10-01 19:52:00
4:52 PM,64.0,46.0,52,29.86,10.0,East,9.2,-,N/A,,Clear,80,2012-10-01 20:52:00
5:10 PM,64.4,46.4,52,29.86,10.0,East,9.2,-,N/A,,Partly Cloudy,90,2012-10-01 21:10:00
5:52 PM,64.0,46.0,52,29.86,10.0,East,10.4,-,N/A,,Clear,80,2012-10-01 21:52:00
6:52 PM,60.1,43.0,53,29.86,10.0,East,8.1,-,N/A,,Clear,80,2012-10-01 22:52:00
7:52 PM,55.9,46.9,72,29.84,10.0,ENE,5.8,-,N/A,,Clear,70,2012-10-01 23:52:00
8:52 PM,57.0,48.0,72,29.85,10.0,ENE,4.6,-,N/A,,Scattered Clouds,60,2012-10-02 00:52:00
9:52 PM,57.0,48.9,74,29.85,10.0,NNE,3.5,-,N/A,,Overcast,20,2012-10-02 01:52:00
10:52 PM,55.4,50.0,82,29.85,10.0,Calm,Calm,-,N/A,Rain,Light Rain,0,2012-10-02 02:52:00
11:52 PM,55.0,51.1,86,29.85,10.0,Calm,Calm,-,0.01,Rain,Light Rain,0,2012-10-02 03:52:00